Chehalis, WA
on Monday, December 31, 2012

Monday
Previous Day Next Day
Daily Summary
 ActualAverage (KOLM)Record (KOLM)
Temperature
Mean Temperature °F 38°F  
Max Temperature 35°F 44°F 58°F (1996)
Min Temperature 32°F 33°F -5°F (1978)
Degree Days
Heating Degree Days 32 27  
Month to date heating degree days 826  
Since 1 July heating degree days 2270  
Cooling Degree Days 0 0  
Month to date cooling degree days 0  
Year to date cooling degree days 106  
Moisture
Dew Point 31°F   
Average Humidity 96    
Maximum Humidity 100    
Minimum Humidity 87    
Precipitation
Precipitation 0.05 in 0.22 in 1.63 in (1996)
Month to date precipitation 7.46  
Year to date precipitation 50.00  
Wind
Wind Speed 2 mph   
Max Wind Speed 6 mph   
Max Gust Speed mph   
Visibility 5 miles   
Events Fog , Rain   

Key: T is trace of precipitation, MM is missing value
Source: NWS Daily Summary
Time(PST)TemperatureDew PointHumidity Pressure Visibility Wind DirectionWind SpeedGust SpeedPrecipitationEvents Conditions
12:15 AM 32.0°F 32.0°F 100% 30.30 in 0.5 miles South 4.6 mph - N/A Fog Light Freezing Fog
12:35 AM 32.0°F 30.2°F 93% 30.31 in 1.0 miles WSW 3.5 mph - N/A   Overcast
12:55 AM 32.0°F 32.0°F 100% 30.31 in 2.5 miles Calm Calm - N/A   Overcast
1:15 AM 32.0°F 32.0°F 100% 30.31 in 3.0 miles Calm Calm - N/A   Overcast
1:35 AM 32.0°F 32.0°F 100% 30.31 in 10.0 miles Calm Calm - N/A   Overcast
1:55 AM 32.0°F 32.0°F 100% 30.32 in 8.0 miles Calm Calm - N/A   Mostly Cloudy
2:15 AM 32.0°F 30.2°F 93% 30.31 in 10.0 miles Calm Calm - N/A   Mostly Cloudy
2:35 AM 32.0°F 32.0°F 100% 30.31 in 10.0 miles SW 4.6 mph - N/A   Partly Cloudy
2:55 AM 32.0°F 32.0°F 100% 30.31 in 10.0 miles SSW 3.5 mph - N/A   Mostly Cloudy
3:15 AM 32.0°F 32.0°F 100% 30.31 in 10.0 miles SW 3.5 mph - N/A   Mostly Cloudy
3:35 AM 32.0°F 32.0°F 100% 30.30 in 8.0 miles SW 3.5 mph - N/A   Clear
4:15 AM 32.0°F 30.2°F 93% 30.28 in 10.0 miles Calm Calm - N/A   Clear
4:35 AM 32.0°F 30.2°F 93% 30.28 in 10.0 miles Calm Calm - N/A   Clear
4:55 AM 32.0°F 30.2°F 93% 30.27 in 10.0 miles SW 3.5 mph - N/A   Clear
5:15 AM 32.0°F 32.0°F 100% 30.26 in 10.0 miles South 4.6 mph - N/A   Clear
5:35 AM 32.0°F 30.2°F 93% 30.26 in 10.0 miles SSW 3.5 mph - N/A   Clear
6:15 AM 32.0°F 30.2°F 93% 30.26 in 10.0 miles South 5.8 mph - N/A   Clear
6:35 AM 32.0°F 30.2°F 93% 30.26 in 10.0 miles South 4.6 mph - N/A   Scattered Clouds
6:55 AM 32.0°F 30.2°F 93% 30.27 in 10.0 miles South 5.8 mph - N/A   Overcast
7:15 AM 32.0°F 28.4°F 87% 30.27 in 10.0 miles SSE 4.6 mph - N/A   Overcast
7:35 AM 32.0°F 28.4°F 87% 30.27 in 10.0 miles WSW 3.5 mph - N/A   Overcast
7:55 AM 32.0°F 30.2°F 93% 30.29 in 10.0 miles SSW 3.5 mph - N/A   Overcast
8:15 AM 32.0°F 30.2°F 93% 30.29 in 10.0 miles Calm Calm - N/A   Overcast
8:35 AM 32.0°F 30.2°F 93% 30.29 in 9.0 miles South 3.5 mph - N/A   Overcast
8:55 AM 32.0°F 30.2°F 93% 30.30 in 9.0 miles Calm Calm - N/A   Overcast
9:15 AM 32.0°F 30.2°F 93% 30.30 in 7.0 miles South 3.5 mph - N/A   Mostly Cloudy
9:35 AM 33.8°F 30.2°F 87% 30.31 in 3.0 miles SSE 4.6 mph - N/A   Overcast
9:55 AM 32.0°F 32.0°F 100% 30.32 in 1.2 miles South 3.5 mph - N/A   Mostly Cloudy
10:15 AM 32.0°F 32.0°F 100% 30.32 in 3.0 miles SSW 3.5 mph - N/A   Mostly Cloudy
10:35 AM 32.0°F 32.0°F 100% 30.33 in 3.0 miles SSE 4.6 mph - N/A   Mostly Cloudy
10:55 AM 32.0°F 32.0°F 100% 30.33 in 1.5 miles South 3.5 mph - N/A Rain Light Rain
11:35 AM 32.0°F 32.0°F 100% 30.33 in 1.0 miles South 3.5 mph - N/A Rain Light Rain
11:55 AM 32.0°F 32.0°F 100% 30.33 in 0.8 miles SSE 3.5 mph - N/A Rain Light Rain
12:15 PM 32.0°F 32.0°F 100% 30.32 in 1.2 miles Calm Calm - N/A Rain Light Rain
12:35 PM 32.0°F 32.0°F 100% 30.32 in 1.2 miles Calm Calm - 0.01 in Rain Light Rain
12:55 PM 33.8°F 32.0°F 93% 30.32 in 1.5 miles Calm Calm - 0.01 in Rain Light Rain
1:15 PM 33.8°F 32.0°F 93% 30.32 in 1.5 miles Calm Calm - N/A Rain Light Rain
1:35 PM 33.8°F 32.0°F 93% 30.33 in 2.0 miles Calm Calm - N/A Rain Light Rain
1:55 PM 32.0°F 32.0°F 100% 30.33 in 1.0 miles NNE 3.5 mph - N/A Rain Light Rain
2:15 PM 32.0°F 32.0°F 100% 30.33 in 1.0 miles Calm Calm - N/A Rain Light Rain
2:35 PM 33.8°F 32.0°F 93% 30.33 in 1.5 miles Calm Calm - N/A Rain Light Rain
2:55 PM 33.8°F 32.0°F 93% 30.34 in 3.0 miles Calm Calm - 0.01 in Rain Light Rain
3:35 PM 35.6°F 32.0°F 87% 30.34 in 3.0 miles Calm Calm - 0.01 in   Mostly Cloudy
3:55 PM 33.8°F 32.0°F 93% 30.34 in 5.0 miles Calm Calm - 0.01 in   Mostly Cloudy
4:15 PM 33.8°F 32.0°F 93% 30.34 in 8.0 miles Calm Calm - N/A   Overcast
4:35 PM 33.8°F 32.0°F 93% 30.35 in 4.0 miles Calm Calm - N/A   Overcast
4:55 PM 33.8°F 32.0°F 93% 30.35 in 7.0 miles Calm Calm - N/A   Overcast
5:15 PM 32.0°F 32.0°F 100% 30.35 in 5.0 miles North 3.5 mph - N/A   Overcast
5:35 PM 32.0°F 32.0°F 100% 30.36 in 7.0 miles NNE 4.6 mph - N/A   Overcast
6:15 PM 33.8°F 32.0°F 93% 30.37 in 5.0 miles NNE 3.5 mph - N/A   Overcast
6:35 PM 33.8°F 32.0°F 93% 30.37 in 4.0 miles ENE 4.6 mph - 0.01 in   Overcast
6:55 PM 33.8°F 32.0°F 93% 30.38 in 2.0 miles NE 4.6 mph - 0.01 in   Overcast
7:15 PM 33.8°F 32.0°F 93% 30.39 in 1.5 miles North 4.6 mph - N/A   Overcast
7:35 PM 33.8°F 32.0°F 93% 30.41 in 1.0 miles NE 5.8 mph - N/A   Overcast
7:55 PM 32.0°F 32.0°F 100% 30.42 in 1.0 miles Calm Calm - N/A   Overcast
8:35 PM 33.8°F 32.0°F 93% 30.42 in 0.5 miles Calm Calm - N/A Fog Fog
8:55 PM 33.8°F 32.0°F 93% 30.43 in 0.8 miles Calm Calm - N/A   Overcast
9:15 PM 32.0°F 32.0°F 100% 30.43 in 0.5 miles Calm Calm - 0.01 in Fog Fog
9:35 PM 32.0°F 32.0°F 100% 30.43 in 0.5 miles Calm Calm - 0.01 in Fog Fog
9:55 PM 32.0°F 32.0°F 100% 30.43 in 0.2 miles South 3.5 mph - 0.01 in Fog Fog
10:15 PM 32.0°F 32.0°F 100% 30.44 in 0.5 miles SSW 4.6 mph - N/A Fog Fog
10:35 PM 32.0°F 32.0°F 100% 30.45 in 1.0 miles Calm Calm - N/A   Overcast
10:55 PM 32.0°F 32.0°F 100% 30.46 in 1.0 miles Calm Calm - N/A   Overcast
11:15 PM 32.0°F 32.0°F 100% 30.46 in 1.2 miles Calm Calm - N/A   Overcast
11:35 PM 32.0°F 32.0°F 100% 30.46 in 2.0 miles Calm Calm - N/A   Overcast
11:55 PM 32.0°F 32.0°F 100% 30.46 in 2.0 miles Calm Calm - N/A   Overcast
Moon Phase
Dec. 31 Jan. 04 Jan. 11 Jan. 18 Jan. 26
Sunrise:07:56 AM (PST) Moon Rise:08:24 PM (PST)
Sunset:04:34 PM (PST) Moon Set:09:28 AM (PST)

Copyright © 2014 The Weather Underground, Inc.